sat.trackr.live / text

‹ back to catalog

STARLINK-3533

NORAD 51715 · 2022-016B

PAYLOAD ACTIVE UNKNOWN

§ Identity

Operator
Country
US
Launch date
2022-02-21
Launch site
AFETR
Launch vehicle
Mass (kg)
RCS (m²)

Purposes: comms

External: N2YO · Heavens-Above · Gunter

§ Orbital elements

Epoch: 2026-09-20T03:43:44.242752Z

Period
94.01 min
Inclination
53.1589°
Eccentricity
0.0001023
Mean motion
15.31695685 rev/d
Perigee alt
470.1 km
Apogee alt
471.5 km
Semi-major
6,848.9 km
B*
-2.5168e-5
RAAN
161.5063°
Arg perigee
86.4079°
Mean anomaly
273.7039°
Rev number
25,411

§ Raw data

STARLINK-35331 51715U 22016B   26263.15537318 -.00001146  00000+0 -25168-4 0  99912 51715  53.1589 161.5063 0001023  86.4079 273.7039 15.31695685254117

JSON: /api/v1/satellites/51715 · /tle

For live sub-satellite position, see the globe view (requires WebGL).

§ Visibility from observer

Set your observer location to see the next 7 days of passes ≥ 10°. The values pass through the URL so the page stays shareable.

No JS? Fill the form by hand. The geolocation button needs JavaScript.